sat.trackr.live / text

‹ back to catalog

STARLINK-37031

NORAD 68172 · 2026-050F

PAYLOAD ACTIVE UNKNOWN

§ Identity

Operator
Country
US
Launch date
2026-03-14
Launch site
AFETR
Launch vehicle
Mass (kg)
RCS (m²)

Purposes: comms

External: N2YO · Heavens-Above · Gunter

§ Orbital elements

Epoch: 2026-09-19T20:11:21.483168Z

Period
93.85 min
Inclination
53.1577°
Eccentricity
0.0002095
Mean motion
15.34404910 rev/d
Perigee alt
461.3 km
Apogee alt
464.1 km
Semi-major
6,840.8 km
B*
7.3748e-4
RAAN
81.0361°
Arg perigee
69.7610°
Mean anomaly
290.3617°
Rev number
3,046

§ Raw data

STARLINK-370311 68172U 26050F   26262.84122087  .00024627  00000+0  73748-3 0  99992 68172  53.1577  81.0361 0002095  69.7610 290.3617 15.34404910 30460

JSON: /api/v1/satellites/68172 · /tle

For live sub-satellite position, see the globe view (requires WebGL).

§ Visibility from observer

Set your observer location to see the next 7 days of passes ≥ 10°. The values pass through the URL so the page stays shareable.

No JS? Fill the form by hand. The geolocation button needs JavaScript.